DECAYED

STARLINK-2641, 48369 (Decayed)

Orbit data source: Space-Track

STARLINK-2641, 48369 was a payload satellite owned by SpaceX/Seattle (US) in LEO that was launched on Tue, 04 May 2021 UTC via an FALCON 9 launch vehicle from the Air Force Eastern Test Range (AFETR). Payload-class satellites include a variety of spacecraft equipped with specific instruments for various scientific and technological missions. These include communications satellites like Starlink; space stations such as the ISS; scientific satellites like the Hubble; Earth observation satellites from companies like Planet Labs, Umbra, and HawkEye 360; GPS; miniature CubeSats for education and research; and military/defense satellites.

Not visible in the next 10 days
Identifier
48369, 2021-038S
Orbit
Decayed
Country
Flag of USUS
Related business
Manufacturer
SpaceX/Seattle
Mission
Decayed Commercial Communications
Bus & Motor
STARLINK, Unknown motor
Mass
260 kg wet, ~248 kg dry
Launch date (UTC)
2021-05-04 (5 years ago)
Launch vehicle
FALCON 9
Launch site
Air Force Eastern Test Range (AFETR)
Object type
Payload
Rocket body
Debris
Shape & HBR
Box + 1 Pan, 10.1 m
Radar Cross Section
13.562 m², Large (>1 m²)

Expand to show TLE details & history
Last TLE update: 1 year ago

TLE from 1 year ago
0 STARLINK-2641
1 48369U 21038S   25097.28247319  .19133135  12466-4  65147-3 0  9998
2 48369  53.0490  37.3890 0004806 258.8799 224.6677 16.44385808217381
Epoch: 2025-04-07T06:46Z
TLE epoch observation values (Epoch: 2025-04-07T06:46:45.683Z)
Latitude
41.9251°
Longitude
-122.29418°
Altitude
160.359 km
Speed
7.814 km/s
True Right ascension
11h 40m 47s
True Declination
41° 44' 19"
Sunlit
Object was in full shadow at epoch
Visualization orbit readout
Latitude
Unknown
Longitude
Unknown
Altitude
Unknown
Speed
Unknown
Apparent Right ascension
Unknown
Apparent Declination
Unknown
Sunlit
N/A
Visualization observer readout
Local Sidereal Time
21:29:35
Azimuth
Unknown
Elevation
Unknown
Doppler factor
Unknown
Orbital elements
Apogee altitude
157.589 km
Perigee altitude
151.309 km
Semi-major axis
6,532.586 km
Eccentricity
0.00048
Inclination
53.049°
RAAN
37.389°
Arg. of periapsis
258.8799°
True anomaly
224.629°
Mean anomaly
224.6677°
Eccentric anomaly
224.64835°
Mean motion
4.1107 °/min
Orbital period
87.58 mins
BSTAR
0.00065147
Loading maneuver chart data...
Computing Atmospheric mass density...

Documentation

Showing up to 5 results
|